Time,TemperatureF,DewpointF,PressureIn,WindDirection,WindDirectionDegrees,WindSpeedMPH,WindSpeedGustMPH,Humidity,HourlyPrecipIn,Conditions,Clouds,dailyrainin,SoftwareType,DateUTC
2013-03-20 00:02:00,57.0,35.0,30.15,NNE,23,1.0,5.0,43,0.00,,,0.00,,2013-03-20 05:02:00,
2013-03-20 00:12:00,56.0,34.0,30.15,NNE,15,1.0,4.0,44,0.00,,,0.00,,2013-03-20 05:12:00,
2013-03-20 00:22:00,56.0,34.0,30.15,NNE,15,1.0,4.0,44,0.00,,,0.00,,2013-03-20 05:22:00,
2013-03-20 00:32:00,56.0,35.0,30.15,NE,36,1.0,4.0,45,0.00,,,0.00,,2013-03-20 05:32:00,
2013-03-20 00:42:00,56.0,35.0,30.15,NE,36,1.0,4.0,45,0.00,,,0.00,,2013-03-20 05:42:00,
2013-03-20 00:53:00,55.0,35.0,30.16,WNW,285,0.0,5.0,46,0.00,,,0.00,,2013-03-20 05:53:00,
2013-03-20 01:02:00,55.0,35.0,30.15,NW,319,1.0,3.0,46,0.00,,,0.00,,2013-03-20 06:02:00,
2013-03-20 01:12:00,55.0,35.0,30.15,NW,319,1.0,3.0,46,0.00,,,0.00,,2013-03-20 06:12:00,
2013-03-20 01:22:00,55.0,35.0,30.16,NE,54,0.0,4.0,47,0.00,,,0.00,,2013-03-20 06:22:00,
2013-03-20 01:32:00,54.0,34.0,30.17,North,353,1.0,4.0,47,0.00,,,0.00,,2013-03-20 06:32:00,
2013-03-20 01:42:00,54.0,34.0,30.17,North,353,1.0,4.0,47,0.00,,,0.00,,2013-03-20 06:42:00,
2013-03-20 01:53:00,54.0,35.0,30.18,NE,40,0.0,5.0,48,0.00,,,0.00,,2013-03-20 06:53:00,
2013-03-20 02:02:00,54.0,35.0,30.18,NNW,347,2.0,5.0,48,0.00,,,0.00,,2013-03-20 07:02:00,
2013-03-20 02:12:00,54.0,35.0,30.18,NNW,347,2.0,5.0,48,0.00,,,0.00,,2013-03-20 07:12:00,
2013-03-20 02:22:00,54.0,35.0,30.19,North,1,1.0,4.0,49,0.00,,,0.00,,2013-03-20 07:22:00,
2013-03-20 02:32:00,54.0,35.0,30.20,NNE,27,0.0,3.0,49,0.00,,,0.00,,2013-03-20 07:32:00,
2013-03-20 02:42:00,54.0,35.0,30.20,NNE,27,0.0,3.0,49,0.00,,,0.00,,2013-03-20 07:42:00,
2013-03-20 02:52:00,53.0,35.0,30.21,NE,40,0.0,3.0,51,0.00,,,0.00,,2013-03-20 07:52:00,
2013-03-20 03:02:00,53.0,36.0,30.22,NNW,330,0.0,3.0,52,0.00,,,0.00,,2013-03-20 08:02:00,
2013-03-20 03:12:00,53.0,36.0,30.22,NNW,330,0.0,3.0,52,0.00,,,0.00,,2013-03-20 08:12:00,
2013-03-20 03:22:00,52.0,35.0,30.22,NNW,337,0.0,1.0,53,0.00,,,0.00,,2013-03-20 08:22:00,
2013-03-20 03:32:00,51.0,35.0,30.22,NNE,21,0.0,3.0,54,0.00,,,0.00,,2013-03-20 08:32:00,
2013-03-20 03:42:00,51.0,35.0,30.21,ENE,71,1.0,4.0,54,0.00,,,0.00,,2013-03-20 08:42:00,
2013-03-20 03:52:00,51.0,35.0,30.21,ENE,71,1.0,4.0,54,0.00,,,0.00,,2013-03-20 08:52:00,
2013-03-20 04:02:00,51.0,35.0,30.21,NNE,25,1.0,3.0,55,0.00,,,0.00,,2013-03-20 09:02:00,
2013-03-20 04:12:00,51.0,35.0,30.21,NNE,25,1.0,3.0,55,0.00,,,0.00,,2013-03-20 09:12:00,
2013-03-20 04:22:00,51.0,35.0,30.20,NNE,22,0.0,5.0,55,0.00,,,0.00,,2013-03-20 09:22:00,
2013-03-20 04:32:00,50.0,35.0,30.21,NW,318,0.0,2.0,56,0.00,,,0.00,,2013-03-20 09:32:00,
2013-03-20 04:43:00,50.0,35.0,30.21,NW,318,0.0,2.0,56,0.00,,,0.00,,2013-03-20 09:43:00,
2013-03-20 04:53:00,50.0,35.0,30.22,North,11,0.0,5.0,56,0.00,,,0.00,,2013-03-20 09:53:00,
2013-03-20 05:03:00,50.0,35.0,30.21,NNE,27,1.0,5.0,57,0.00,,,0.00,,2013-03-20 10:03:00,
2013-03-20 05:12:00,50.0,35.0,30.21,NNE,27,1.0,5.0,57,0.00,,,0.00,,2013-03-20 10:12:00,
2013-03-20 05:22:00,50.0,35.0,30.22,NE,47,1.0,6.0,57,0.00,,,0.00,,2013-03-20 10:22:00,
2013-03-20 05:32:00,50.0,35.0,30.22,NE,37,2.0,6.0,56,0.00,,,0.00,,2013-03-20 10:32:00,
2013-03-20 05:42:00,50.0,35.0,30.22,NE,37,2.0,6.0,56,0.00,,,0.00,,2013-03-20 10:42:00,
2013-03-20 05:53:00,51.0,35.0,30.23,NE,36,2.0,7.0,55,0.00,,,0.00,,2013-03-20 10:53:00,
2013-03-20 06:03:00,51.0,36.0,30.24,NNE,20,0.0,5.0,56,0.00,,,0.00,,2013-03-20 11:03:00,
2013-03-20 06:12:00,51.0,36.0,30.24,NNE,20,0.0,5.0,56,0.00,,,0.00,,2013-03-20 11:12:00,
2013-03-20 06:22:00,50.0,36.0,30.24,NNE,30,1.0,4.0,58,0.00,,,0.00,,2013-03-20 11:22:00,
2013-03-20 06:32:00,49.0,35.0,30.25,NE,56,0.0,6.0,59,0.00,,,0.00,,2013-03-20 11:32:00,
2013-03-20 06:42:00,49.0,35.0,30.25,NE,56,0.0,6.0,59,0.00,,,0.00,,2013-03-20 11:42:00,
2013-03-20 06:52:00,49.0,36.0,30.26,NNW,327,0.0,3.0,60,0.00,,,0.00,,2013-03-20 11:52:00,
2013-03-20 07:02:00,48.0,35.0,30.27,NE,49,0.0,4.0,61,0.00,,,0.00,,2013-03-20 12:02:00,
2013-03-20 07:12:00,48.0,35.0,30.27,NE,49,0.0,4.0,61,0.00,,,0.00,,2013-03-20 12:12:00,
2013-03-20 07:22:00,47.0,35.0,30.28,NNE,15,0.0,1.0,64,0.00,,,0.00,,2013-03-20 12:22:00,
2013-03-20 07:32:00,47.0,36.0,30.29,NNE,19,0.0,1.0,65,0.00,,,0.00,,2013-03-20 12:32:00,
2013-03-20 07:42:00,47.0,36.0,30.29,NNE,19,0.0,1.0,65,0.00,,,0.00,,2013-03-20 12:42:00,
2013-03-20 07:52:00,46.0,35.0,30.29,NNW,335,0.0,0.0,66,0.00,,,0.00,,2013-03-20 12:52:00,
2013-03-20 08:03:00,46.0,36.0,30.30,North,353,0.0,0.0,67,0.00,,,0.00,,2013-03-20 13:03:00,
2013-03-20 08:12:00,46.0,36.0,30.30,North,353,0.0,0.0,67,0.00,,,0.00,,2013-03-20 13:12:00,
2013-03-20 08:22:00,48.0,36.0,30.30,NE,44,0.0,2.0,63,0.00,,,0.00,,2013-03-20 13:22:00,
2013-03-20 08:32:00,50.0,36.0,30.31,ENE,72,0.0,2.0,59,0.00,,,0.00,,2013-03-20 13:32:00,
2013-03-20 08:42:00,50.0,36.0,30.31,ENE,72,0.0,2.0,59,0.00,,,0.00,,2013-03-20 13:42:00,
2013-03-20 08:53:00,52.0,37.0,30.32,NE,45,0.0,2.0,56,0.00,,,0.00,,2013-03-20 13:53:00,
2013-03-20 09:02:00,52.0,36.0,30.33,NE,56,0.0,4.0,54,0.00,,,0.00,,2013-03-20 14:02:00,
2013-03-20 09:12:00,52.0,36.0,30.33,NE,56,0.0,4.0,54,0.00,,,0.00,,2013-03-20 14:12:00,
2013-03-20 09:22:00,53.0,35.0,30.34,WNW,289,1.0,5.0,51,0.00,,,0.00,,2013-03-20 14:22:00,
2013-03-20 09:33:00,53.0,35.0,30.34,NE,38,0.0,4.0,50,0.00,,,0.00,,2013-03-20 14:33:00,
2013-03-20 09:42:00,53.0,35.0,30.34,NE,38,0.0,4.0,50,0.00,,,0.00,,2013-03-20 14:42:00,
2013-03-20 09:52:00,54.0,34.0,30.34,East,79,0.0,4.0,47,0.00,,,0.00,,2013-03-20 14:52:00,
2013-03-20 10:02:00,56.0,35.0,30.34,NW,319,1.0,4.0,45,0.00,,,0.00,,2013-03-20 15:02:00,
2013-03-20 10:12:00,57.0,35.0,30.34,ENE,70,1.0,3.0,43,0.00,,,0.00,,2013-03-20 15:12:00,
2013-03-20 10:22:00,57.0,35.0,30.34,ENE,70,1.0,3.0,43,0.00,,,0.00,,2013-03-20 15:22:00,
2013-03-20 10:33:00,58.0,35.0,30.35,NE,49,1.0,3.0,42,0.00,,,0.00,,2013-03-20 15:33:00,
2013-03-20 10:43:00,58.0,35.0,30.35,NE,49,1.0,3.0,42,0.00,,,0.00,,2013-03-20 15:43:00,
2013-03-20 10:53:00,58.0,34.0,30.34,East,100,0.0,4.0,41,0.00,,,0.00,,2013-03-20 15:53:00,
2013-03-20 11:03:00,59.0,35.0,30.35,North,11,1.0,3.0,40,0.00,,,0.00,,2013-03-20 16:03:00,
2013-03-20 11:12:00,59.0,35.0,30.35,North,11,1.0,3.0,40,0.00,,,0.00,,2013-03-20 16:12:00,
2013-03-20 11:23:00,60.0,35.0,30.35,NNW,330,0.0,3.0,39,0.00,,,0.00,,2013-03-20 16:23:00,
2013-03-20 11:32:00,61.0,35.0,30.34,ENE,68,1.0,3.0,38,0.00,,,0.00,,2013-03-20 16:32:00,
2013-03-20 11:42:00,61.0,35.0,30.34,ENE,68,1.0,3.0,38,0.00,,,0.00,,2013-03-20 16:42:00,
2013-03-20 11:53:00,61.0,35.0,30.34,SW,228,0.0,4.0,38,0.00,,,0.00,,2013-03-20 16:53:00,
2013-03-20 12:03:00,63.0,35.0,30.34,WNW,297,1.0,4.0,35,0.00,,,0.00,,2013-03-20 17:03:00,
2013-03-20 12:12:00,63.0,35.0,30.34,WNW,297,1.0,4.0,35,0.00,,,0.00,,2013-03-20 17:12:00,
2013-03-20 12:22:00,63.0,35.0,30.33,ENE,71,0.0,8.0,35,0.00,,,0.00,,2013-03-20 17:22:00,
2013-03-20 12:32:00,64.0,31.0,30.32,WNW,297,2.0,7.0,29,0.00,,,0.00,,2013-03-20 17:32:00,
2013-03-20 12:42:00,64.0,31.0,30.32,WNW,297,2.0,7.0,29,0.00,,,0.00,,2013-03-20 17:42:00,
2013-03-20 12:53:00,64.0,27.0,30.32,North,360,1.0,5.0,25,0.00,,,0.00,,2013-03-20 17:53:00,
2013-03-20 13:02:00,64.0,26.0,30.32,NW,326,1.0,8.0,24,0.00,,,0.00,,2013-03-20 18:02:00,
2013-03-20 13:12:00,64.0,26.0,30.32,NW,326,1.0,8.0,24,0.00,,,0.00,,2013-03-20 18:12:00,
2013-03-20 13:22:00,65.0,26.0,30.31,NE,42,2.0,7.0,23,0.00,,,0.00,,2013-03-20 18:22:00,
2013-03-20 13:33:00,65.0,29.0,30.31,NW,319,1.0,6.0,26,0.00,,,0.00,,2013-03-20 18:33:00,
2013-03-20 13:42:00,65.0,29.0,30.31,NW,319,1.0,6.0,26,0.00,,,0.00,,2013-03-20 18:42:00,
2013-03-20 13:52:00,65.0,29.0,30.30,ENE,60,0.0,7.0,26,0.00,,,0.00,,2013-03-20 18:52:00,
2013-03-20 14:02:00,65.0,29.0,30.29,West,259,2.0,7.0,26,0.00,,,0.00,,2013-03-20 19:02:00,
2013-03-20 14:12:00,65.0,29.0,30.29,West,259,2.0,7.0,26,0.00,,,0.00,,2013-03-20 19:12:00,
2013-03-20 14:22:00,65.0,29.0,30.28,WNW,293,0.0,4.0,26,0.00,,,0.00,,2013-03-20 19:22:00,
2013-03-20 14:32:00,66.0,29.0,30.26,ESE,102,0.0,7.0,25,0.00,,,0.00,,2013-03-20 19:32:00,
2013-03-20 14:42:00,66.0,29.0,30.26,ESE,102,0.0,7.0,25,0.00,,,0.00,,2013-03-20 19:42:00,
2013-03-20 14:53:00,66.0,29.0,30.25,NW,326,0.0,6.0,25,0.00,,,0.00,,2013-03-20 19:53:00,
2013-03-20 15:02:00,65.0,29.0,30.24,ENE,77,3.0,8.0,26,0.00,,,0.00,,2013-03-20 20:02:00,
2013-03-20 15:12:00,65.0,29.0,30.24,ENE,77,3.0,8.0,26,0.00,,,0.00,,2013-03-20 20:12:00,
2013-03-20 15:22:00,66.0,30.0,30.23,West,263,1.0,6.0,26,0.00,,,0.00,,2013-03-20 20:22:00,
2013-03-20 15:32:00,66.0,29.0,30.21,NNE,19,0.0,6.0,25,0.00,,,0.00,,2013-03-20 20:32:00,
2013-03-20 15:42:00,66.0,29.0,30.21,NNE,19,0.0,6.0,25,0.00,,,0.00,,2013-03-20 20:42:00,
2013-03-20 15:53:00,67.0,29.0,30.21,WNW,301,2.0,5.0,24,0.00,,,0.00,,2013-03-20 20:53:00,
2013-03-20 16:02:00,66.0,31.0,30.20,NW,315,1.0,6.0,27,0.00,,,0.00,,2013-03-20 21:02:00,
2013-03-20 16:12:00,66.0,31.0,30.20,NW,315,1.0,6.0,27,0.00,,,0.00,,2013-03-20 21:12:00,
2013-03-20 16:22:00,66.0,31.0,30.20,NW,315,1.0,6.0,27,0.00,,,0.00,,2013-03-20 21:22:00,
2013-03-20 16:33:00,67.0,31.0,30.19,NE,37,1.0,4.0,26,0.00,,,0.00,,2013-03-20 21:33:00,
2013-03-20 16:42:00,67.0,31.0,30.19,NE,37,1.0,4.0,26,0.00,,,0.00,,2013-03-20 21:42:00,
2013-03-20 16:52:00,67.0,30.0,30.19,NNW,340,2.0,4.0,25,0.00,,,0.00,,2013-03-20 21:52:00,
2013-03-20 17:03:00,66.0,31.0,30.19,NNW,328,2.0,7.0,27,0.00,,,0.00,,2013-03-20 22:03:00,
2013-03-20 17:12:00,66.0,31.0,30.19,NNW,328,2.0,7.0,27,0.00,,,0.00,,2013-03-20 22:12:00,
2013-03-20 17:23:00,66.0,31.0,30.17,SSW,194,1.0,4.0,27,0.00,,,0.00,,2013-03-20 22:23:00,
2013-03-20 17:32:00,65.0,31.0,30.16,WNW,293,0.0,3.0,28,0.00,,,0.00,,2013-03-20 22:32:00,
2013-03-20 17:42:00,65.0,31.0,30.16,WNW,293,0.0,3.0,28,0.00,,,0.00,,2013-03-20 22:42:00,
2013-03-20 17:52:00,66.0,30.0,30.16,SW,231,0.0,4.0,26,0.00,,,0.00,,2013-03-20 22:52:00,
2013-03-20 18:02:00,65.0,30.0,30.16,SW,236,0.0,4.0,27,0.00,,,0.00,,2013-03-20 23:02:00,
2013-03-20 18:12:00,65.0,30.0,30.16,SW,236,0.0,4.0,27,0.00,,,0.00,,2013-03-20 23:12:00,
2013-03-20 18:22:00,66.0,30.0,30.15,WNW,295,1.0,3.0,26,0.00,,,0.00,,2013-03-20 23:22:00,
2013-03-20 18:32:00,65.0,29.0,30.15,ESE,113,0.0,1.0,26,0.00,,,0.00,,2013-03-20 23:32:00,
2013-03-20 18:42:00,65.0,29.0,30.15,ESE,113,0.0,1.0,26,0.00,,,0.00,,2013-03-20 23:42:00,
2013-03-20 18:52:00,65.0,29.0,30.15,ESE,113,0.0,1.0,26,0.00,,,0.00,,2013-03-20 23:52:00,
2013-03-20 19:02:00,64.0,30.0,30.14,NE,34,1.0,4.0,28,0.00,,,0.00,,2013-03-21 00:02:00,
2013-03-20 19:12:00,64.0,30.0,30.14,NE,34,1.0,4.0,28,0.00,,,0.00,,2013-03-21 00:12:00,
2013-03-20 19:22:00,63.0,31.0,30.13,NE,51,0.0,2.0,30,0.00,,,0.00,,2013-03-21 00:22:00,
2013-03-20 19:32:00,62.0,30.0,30.13,East,89,0.0,5.0,30,0.00,,,0.00,,2013-03-21 00:32:00,
2013-03-20 19:42:00,62.0,30.0,30.13,East,89,0.0,5.0,30,0.00,,,0.00,,2013-03-21 00:42:00,
2013-03-20 19:52:00,61.0,31.0,30.13,ENE,77,1.0,4.0,32,0.00,,,0.00,,2013-03-21 00:52:00,
2013-03-20 20:02:00,61.0,31.0,30.13,ENE,69,2.0,4.0,32,0.00,,,0.00,,2013-03-21 01:02:00,
2013-03-20 20:12:00,61.0,31.0,30.13,ENE,69,2.0,4.0,32,0.00,,,0.00,,2013-03-21 01:12:00,
2013-03-20 20:22:00,60.0,31.0,30.13,East,83,0.0,3.0,33,0.00,,,0.00,,2013-03-21 01:22:00,
2013-03-20 20:32:00,59.0,31.0,30.12,NE,53,0.0,2.0,34,0.00,,,0.00,,2013-03-21 01:32:00,
2013-03-20 20:42:00,59.0,31.0,30.12,NE,53,0.0,2.0,34,0.00,,,0.00,,2013-03-21 01:42:00,
2013-03-20 20:52:00,59.0,31.0,30.12,ENE,61,0.0,3.0,35,0.00,,,0.00,,2013-03-21 01:52:00,
2013-03-20 21:02:00,58.0,31.0,30.12,ENE,65,0.0,0.0,36,0.00,,,0.00,,2013-03-21 02:02:00,
2013-03-20 21:12:00,58.0,31.0,30.12,ENE,65,0.0,0.0,36,0.00,,,0.00,,2013-03-21 02:12:00,
2013-03-20 21:22:00,57.0,32.0,30.12,ENE,65,0.0,0.0,39,0.00,,,0.00,,2013-03-21 02:22:00,
2013-03-20 21:32:00,56.0,32.0,30.11,ENE,65,0.0,0.0,40,0.00,,,0.00,,2013-03-21 02:32:00,
2013-03-20 21:42:00,56.0,32.0,30.11,ENE,65,0.0,0.0,40,0.00,,,0.00,,2013-03-21 02:42:00,
2013-03-20 21:51:00,56.0,32.0,30.11,ENE,65,0.0,0.0,40,0.00,,,0.00,,2013-03-21 02:51:00,
2013-03-20 22:02:00,54.0,33.0,30.10,ENE,72,0.0,0.0,44,0.00,,,0.00,,2013-03-21 03:02:00,
2013-03-20 22:12:00,54.0,33.0,30.10,ENE,72,0.0,0.0,44,0.00,,,0.00,,2013-03-21 03:12:00,
2013-03-20 22:22:00,55.0,33.0,30.10,East,88,0.0,1.0,43,0.00,,,0.00,,2013-03-21 03:22:00,
2013-03-20 22:33:00,54.0,33.0,30.10,East,87,0.0,0.0,44,0.00,,,0.00,,2013-03-21 03:33:00,
2013-03-20 22:43:00,54.0,33.0,30.10,East,87,0.0,0.0,44,0.00,,,0.00,,2013-03-21 03:43:00,
2013-03-20 22:53:00,53.0,33.0,30.09,East,88,0.0,0.0,46,0.00,,,0.00,,2013-03-21 03:53:00,
2013-03-20 23:03:00,54.0,33.0,30.09,East,88,0.0,0.0,44,0.00,,,0.00,,2013-03-21 04:03:00,
2013-03-20 23:13:00,54.0,33.0,30.09,East,88,0.0,0.0,44,0.00,,,0.00,,2013-03-21 04:13:00,
2013-03-20 23:23:00,54.0,33.0,30.09,East,88,0.0,0.0,44,0.00,,,0.00,,2013-03-21 04:23:00,
2013-03-20 23:33:00,54.0,33.0,30.08,East,79,0.0,2.0,44,0.00,,,0.00,,2013-03-21 04:33:00,
2013-03-20 23:43:00,54.0,33.0,30.08,East,79,0.0,2.0,44,0.00,,,0.00,,2013-03-21 04:43:00,
2013-03-20 23:52:00,54.0,33.0,30.08,ENE,70,0.0,2.0,44,0.00,,,0.00,,2013-03-21 04:52:00,